Weather History for Wausau, WI

Change the Weather History Date:

Friday, April 12, 2013

  Actual Average Record
Temperature  
Mean Temperature 31 °F 42 °F  
Max Temperature 34 °F 53 °F 78 °F (1931)
Min Temperature 28 °F 32 °F 14 °F (1939)
Degree Days  
Heating Degree Days 34 23  
Month to date heating degree days 381 301  
Since 1 July heating degree days 7457 7522  
Cooling Degree Days 0 0  
Month to date cooling degree days 0 0  
Year to date cooling degree days 0 0  
Moisture  
Dew Point 26 °F    
Average Humidity 81    
Maximum Humidity 92    
Minimum Humidity 69    
Precipitation  
Precipitation 0.09 in 0.09 in 0.99 in (1968)
Month to date precipitation 1.81 0.97  
Year to date precipitation 7.14 4.67  
Snow  
Snow 1.00 in 0.20 in 4.40 in (1929)
Month to date snowfall 4.3 2.1  
Since 1 July snowfall 73.0 57.4  
Snow Depth 2.00 in    
Sea Level Pressure  
Sea Level Pressure 29.64 in    
Wind  
Wind Speed 6 mph (NE)    
Max Wind Speed 14 mph    
Max Gust Speed 20 mph    
Visibility 5 miles    
Events Rain , Snow    
T = Trace of Precipitation, MM = Missing Value Source: NWS Daily Summary

Daily Weather History Graph

Daily Weather History Graph

Search for Another Location

Airport:

Trip Planner

Search our weather history database for the weather conditions in past years. The results will help you decide how hot, cold, wet, or windy it might be!

Date:

Astronomy

Apr. 12, 2013 Rise Set
Actual Time 6:18 AM CDT 7:40 PM CDT
Civil Twilight 5:48 AM CDT 8:10 PM CDT
Nautical Twilight 5:11 AM CDT 8:47 PM CDT
Astronomical Twilight 4:32 AM CDT 9:26 PM CDT
Moon 7:22 AM CDT (4/12) 10:17 PM CDT (4/12)
Length of Visible Light 14h 22m
Length of Day
13h 21m
Waxing Crescent, 5% of the Moon is Illuminated
Apr 12
Waxing Crescent
Apr 18
First Quarter
Apr 25
Full
May 2
Last Quarter
May 9
New

Hourly Weather History & Observations

Time (CDT) Temp. Windchill Dew Point Humidity Pressure Visibility Wind Dir Wind Speed Gust Speed Precip Events Conditions
12:04 AM 28.4 °F 19.1 °F 24.8 °F 86% 29.65 in 4.0 mi East 10.4 mph 19.6 mph 0.00 in Rain Light Freezing Rain
12:13 AM 28.4 °F 19.7 °F 24.8 °F 86% 29.65 in 5.0 mi East 9.2 mph 21.9 mph 0.00 in Rain Light Freezing Rain
12:27 AM 28.4 °F 19.7 °F 24.8 °F 86% 29.64 in 5.0 mi ENE 9.2 mph - 0.00 in   Overcast
12:54 AM 28.9 °F 20.4 °F 25.0 °F 85% 29.69 in 7.0 mi ENE 9.2 mph 19.6 mph 0.00 in   Overcast
1:29 AM 28.4 °F 19.1 °F 24.8 °F 86% 29.62 in 7.0 mi ENE 10.4 mph 17.3 mph 0.00 in   Overcast
1:54 AM 28.0 °F 20.0 °F 25.0 °F 88% 29.66 in 2.5 mi ENE 8.1 mph - 0.01 in   Overcast
2:05 AM 28.4 °F 21.2 °F 24.8 °F 86% 29.61 in 4.0 mi ENE 6.9 mph 18.4 mph 0.01 in   Overcast
2:17 AM 28.4 °F 21.2 °F 24.8 °F 86% 29.60 in 2.5 mi ENE 6.9 mph - 0.01 in Snow Light Snow
2:24 AM 28.4 °F 19.7 °F 26.6 °F 93% 29.60 in 3.0 mi ENE 9.2 mph - 0.01 in   Overcast
2:54 AM 28.9 °F 20.4 °F 26.1 °F 89% 29.65 in 4.0 mi ENE 9.2 mph - 0.01 in   Overcast
3:03 AM 28.4 °F 19.7 °F 26.6 °F 93% 29.59 in 1.8 mi ENE 9.2 mph - 0.00 in Snow Light Snow
3:10 AM 28.4 °F 21.2 °F 26.6 °F 93% 29.59 in 2.0 mi ENE 6.9 mph - 0.00 in Snow Light Snow
3:27 AM 28.4 °F 20.4 °F 26.6 °F 93% 29.59 in 1.2 mi ENE 8.1 mph - 0.00 in Snow Light Snow
3:54 AM 28.0 °F 20.8 °F 26.1 °F 92% 29.64 in 1.8 mi ENE 6.9 mph - 0.01 in Snow Light Snow
4:10 AM 28.4 °F 22.2 °F 26.6 °F 93% 29.59 in 1.8 mi ENE 5.8 mph - 0.00 in Snow Light Snow
4:26 AM 28.4 °F 22.2 °F 26.6 °F 93% 29.58 in 1.5 mi NE 5.8 mph - 0.00 in Snow Light Snow
4:54 AM 28.0 °F 20.8 °F 26.1 °F 92% 29.63 in 1.5 mi ENE 6.9 mph - 0.00 in Snow Light Snow
5:02 AM 28.4 °F 21.2 °F 26.6 °F 93% 29.58 in 1.8 mi NE 6.9 mph - 0.00 in Snow Light Snow
5:11 AM 28.4 °F 19.7 °F 26.6 °F 93% 29.57 in 2.5 mi NE 9.2 mph - 0.00 in Snow Light Snow
5:19 AM 28.4 °F 21.2 °F 26.6 °F 93% 29.57 in 4.0 mi NE 6.9 mph - 0.00 in   Overcast
5:33 AM 28.4 °F 22.2 °F 26.6 °F 93% 29.58 in 5.0 mi NE 5.8 mph - 0.00 in   Overcast
5:46 AM 28.4 °F 20.4 °F 24.8 °F 86% 29.58 in 5.0 mi NE 8.1 mph - 0.00 in   Overcast
5:54 AM 28.9 °F 23.9 °F 25.0 °F 85% 29.63 in 6.0 mi ENE 4.6 mph - 0.00 in   Overcast
6:29 AM 28.4 °F 19.1 °F 24.8 °F 86% 29.58 in 5.0 mi ENE 10.4 mph - 0.00 in   Overcast
6:42 AM 28.4 °F 23.3 °F 24.8 °F 86% 29.58 in 4.0 mi NE 4.6 mph - 0.00 in Snow Light Snow
6:51 AM 28.4 °F 22.2 °F 24.8 °F 86% 29.58 in 1.8 mi NE 5.8 mph - 0.00 in Snow Light Snow
6:52 AM 28.0 °F 20.8 °F 25.0 °F 88% 29.64 in 1.8 mi NE 6.9 mph - 0.00 in Snow Light Snow
7:20 AM 28.4 °F 20.4 °F 24.8 °F 86% 29.58 in 1.2 mi NE 8.1 mph - 0.00 in   Overcast
7:47 AM 28.4 °F 23.3 °F 24.8 °F 86% 29.58 in 3.0 mi Variable 4.6 mph - 0.00 in   Overcast
7:54 AM 28.0 °F 20.8 °F 25.0 °F 88% 29.64 in 5.0 mi NNE 6.9 mph - 0.00 in   Overcast
8:05 AM 28.4 °F 21.2 °F 24.8 °F 86% 29.58 in 10.0 mi Variable 6.9 mph - N/A   Overcast
8:54 AM 28.9 °F 18.6 °F 24.1 °F 82% 29.64 in 9.0 mi ENE 12.7 mph 17.3 mph 0.00 in   Overcast
9:19 AM 28.4 °F 20.4 °F 24.8 °F 86% 29.59 in 2.5 mi East 8.1 mph - 0.00 in Snow Light Snow
9:32 AM 28.4 °F 20.4 °F 24.8 °F 86% 29.59 in 1.8 mi ENE 8.1 mph - 0.00 in Snow Light Snow
9:41 AM 28.4 °F 20.4 °F 24.8 °F 86% 29.59 in 2.5 mi ENE 8.1 mph - 0.00 in Snow Light Snow
9:51 AM 30.2 °F 23.4 °F 24.8 °F 80% 29.59 in 4.0 mi ENE 6.9 mph - 0.00 in   Haze
9:54 AM 30.0 °F 21.7 °F 25.0 °F 82% 29.64 in 4.0 mi NE 9.2 mph - 0.00 in Snow Light Snow
10:07 AM 30.2 °F 21.9 °F 24.8 °F 80% 29.59 in 2.5 mi NE 9.2 mph - 0.00 in Snow Light Snow
10:54 AM 30.0 °F 24.1 °F 25.0 °F 82% 29.66 in 3.0 mi ENE 5.8 mph - 0.00 in Snow Light Snow
11:39 AM 30.2 °F 25.4 °F 24.8 °F 80% 29.61 in 1.8 mi NNE 4.6 mph - 0.00 in Snow Light Snow
11:54 AM 30.9 °F 25.2 °F 26.1 °F 82% 29.67 in 1.8 mi North 5.8 mph - 0.00 in Snow Light Snow
12:02 PM 30.2 °F 25.4 °F 26.6 °F 86% 29.61 in 2.5 mi NE 4.6 mph - 0.00 in Snow Light Snow
12:14 PM 30.2 °F 24.3 °F 26.6 °F 86% 29.61 in 1.2 mi North 5.8 mph - 0.01 in Snow Light Snow
12:30 PM 32.0 °F 26.4 °F 26.6 °F 80% 29.61 in 3.0 mi NNE 5.8 mph - 0.01 in Snow Light Snow
12:51 PM 32.0 °F 26.4 °F 26.6 °F 80% 29.61 in 2.5 mi NNE 5.8 mph - 0.01 in Snow Light Snow
12:54 PM 32.0 °F 27.5 °F 25.0 °F 75% 29.66 in 2.5 mi ENE 4.6 mph - 0.01 in Snow Light Snow
1:04 PM 33.8 °F 27.0 °F 26.6 °F 75% 29.61 in 2.0 mi North 8.1 mph - 0.00 in Snow Light Snow
1:11 PM 32.0 °F 24.8 °F 24.8 °F 75% 29.61 in 3.0 mi ENE 8.1 mph - 0.00 in Snow Light Snow
1:54 PM 33.1 °F 27.7 °F 26.1 °F 75% 29.67 in 10.0 mi North 5.8 mph - 0.00 in   Overcast
2:54 PM 33.1 °F - 25.0 °F 72% 29.69 in 10.0 mi Calm Calm - N/A   Overcast
3:54 PM 33.1 °F 30.0 °F 25.0 °F 72% 29.70 in 10.0 mi WNW 3.5 mph - N/A   Overcast
4:54 PM 33.1 °F 27.7 °F 26.1 °F 75% 29.71 in 5.0 mi West 5.8 mph - 0.00 in Snow Light Snow
5:54 PM 33.1 °F 30.0 °F 27.0 °F 78% 29.72 in 8.0 mi West 3.5 mph - 0.00 in   Overcast
6:34 PM 33.8 °F 28.6 °F 26.6 °F 75% 29.68 in 3.0 mi WSW 5.8 mph - 0.00 in Snow Light Snow
6:54 PM 33.1 °F 27.7 °F 28.0 °F 82% 29.73 in 5.0 mi WSW 5.8 mph - 0.00 in Snow Light Snow
7:27 PM 32.0 °F 26.4 °F 26.6 °F 80% 29.68 in 10.0 mi West 5.8 mph - 0.00 in   Overcast
7:54 PM 32.0 °F 28.7 °F 27.0 °F 82% 29.74 in 10.0 mi West 3.5 mph - 0.00 in   Overcast
8:40 PM 32.0 °F 27.5 °F 28.4 °F 87% 29.69 in 6.0 mi SSW 4.6 mph - 0.00 in Snow Light Snow
8:54 PM 32.0 °F 27.5 °F 28.0 °F 85% 29.74 in 9.0 mi WSW 4.6 mph - 0.00 in   Overcast
9:28 PM 32.0 °F 28.7 °F 28.4 °F 87% 29.69 in 10.0 mi WSW 3.5 mph - N/A   Overcast
9:54 PM 32.0 °F 24.8 °F 28.0 °F 85% 29.75 in 9.0 mi West 8.1 mph - N/A   Overcast
10:02 PM 32.0 °F 24.8 °F 28.4 °F 87% 29.70 in 10.0 mi West 8.1 mph - N/A   Overcast
10:45 PM 32.0 °F 27.5 °F 28.4 °F 87% 29.69 in 8.0 mi West 4.6 mph - 0.00 in   Overcast
10:54 PM 30.9 °F 26.2 °F 28.0 °F 89% 29.75 in 10.0 mi West 4.6 mph - 0.00 in   Overcast
11:54 PM 30.9 °F 23.5 °F 28.0 °F 89% 29.75 in 8.0 mi WNW 8.1 mph - 0.00 in Snow Light Snow